Location: Kawakawa
(35.3830°S, 174.0670°E)
Time: 17:40:27
(UTC+12:00)

GPS 2-04 Rocket1 - Pass Details

Date: 15 August 2020
Orbit: 418 x 548 km, 35.6° (Epoch: 25 September)

Event Time Altitude Azimuth Distance (km) Brightness Sun altitude
Rises 19:59:59 0° 278° (W) 2,583 7.5 -26.6°
Reaches altitude 10° 20:02:15 10° 277° (W) 1,677 6.3 -27.0°
Enters shadow 20:04:26 32° 277° (W) 848 4.3 -27.5°
